Location: Brno
(49.2000°N, 16.6330°E)
Time: 12:35:12
(UTC+01:00)

CARTOSAT-1 - Visible Passes

Search period start: 25 March 2017 00:00
Search period end: 04 April 2017 01:00
Orbit: 617 x 620 km, 97.9° (Epoch: 23 March)

Date Brightness Start Highest point End Pass type
(mag) Time Alt. Az. Time Alt. Az. Time Alt. Az.
25 Mar 5.8 20:06:43 12° NE 20:06:43 12° NE 20:08:06 10° NNE visible
25 Mar 5.2 21:43:50 30° N 21:43:50 30° N 21:46:06 10° NNW visible
26 Mar 5.5 21:23:34 16° NE 21:23:34 16° NE 21:25:40 10° NNE visible
26 Mar 5.4 23:00:42 28° NNW 23:00:42 28° NNW 23:02:51 10° NNW visible
27 Mar 5.2 21:40:25 21° NE 21:40:25 21° NE 21:42:55 10° NNE visible
27 Mar 5.7 23:17:32 25° NW 23:17:32 25° NW 23:19:32 10° NNW visible
28 Mar 5.0 21:57:17 27° NE 21:57:17 27° NE 22:00:00 10° N visible
28 Mar 6.0 23:34:24 20° NW 23:34:24 20° NW 23:36:07 10° NNW visible
29 Mar 4.7 22:14:08 34° NNE 22:14:08 34° NNE 22:16:58 10° N visible
29 Mar 6.2 23:51:15 16° NW 23:51:15 16° NW 23:52:31 10° NW visible
30 Mar 4.6 22:30:59 39° N 22:30:59 39° N 22:33:52 10° N visible
31 Mar 6.5 00:08:07 12° WNW 00:08:07 12° WNW 00:08:40 10° NW visible
31 Mar 5.6 21:10:43 13° ENE 21:10:53 13° ENE 21:12:56 10° NNE visible
31 Mar 4.8 22:47:51 40° NNW 22:47:51 40° NNW 22:50:40 10° NNW visible
01 Apr 5.3 21:27:35 18° ENE 21:27:35 18° ENE 21:30:24 10° NNE visible
01 Apr 5.0 23:04:42 36° NW 23:04:42 36° NW 23:07:24 10° NNW visible
02 Apr 5.0 21:44:26 24° NE 21:44:26 24° NE 21:47:35 10° N visible
02 Apr 5.4 23:21:33 29° NW 23:21:33 29° NW 23:24:03 10° NNW visible
03 Apr 4.6 22:01:17 33° NE 22:01:17 33° NE 22:04:37 10° N visible
03 Apr 5.7 23:38:25 22° WNW 23:38:25 22° WNW 23:40:35 10° NW visible
